Location: ??????
(30.0081°N, 31.2109°E)
Time: 09:17:20
(UTC+00:00)

Cosmos 2219 Rocket - Pass Details

Date: 03 March 2021
Orbit: 826 x 848 km, 71.0° (Epoch: 15 April)

Event Time Altitude Azimuth Distance (km) Brightness Sun altitude
Rises 17:37:00 0° 202° (SSW) 3,348 5.5 -22.7°
Reaches altitude 10° 17:39:25 10° 204° (SSW) 2,418 4.8 -23.2°
Maximum altitude 17:44:57 76° 289° (WNW) 854 2.2 -24.4°
Drops below altitude 10° 17:50:32 10° 16° (NNE) 2,438 4.5 -25.6°
Sets 17:52:59 0° 18° (NNE) 3,377 5.2 -26.2°
